Tracking 25734 objects as of 26-May-2022
HD Live streaming from Space Station
objects crossing your sky now

DMSP 5D-2 F11 DEB

Track DMSP 5D-2 F11 DEB now!
10-day predictions


NORAD ID: 28310
Int'l Code: 1991-082X
Perigee: 754.9 km
Apogee: 771.9 km
Inclination: 98.6 °
Period: 100.0 minutes
Semi major axis: 7134 km
RCS: 0.0074 m2 (small)
Launch date: November 28, 1991
Source: United States (US)
Launch site: AIR FORCE WESTERN TEST RANGE (AFWTR)

Note: This is SATELLITE DEBRIS
aabbcc
Your satellite tracking list
Your tracking list is empty




NASA's NSSDC Master Catalog

Two Line Element Set (TLE):
1 28310U 91082X   22145.13829007  .00005903  00000-0  18597-2 0  9997
2 28310  98.6049 208.8643 0011899 129.3505 257.2025 14.40683604942796
Source of the keplerian elements: AFSPC